Regional Weather Roundup
Issued by NWS Sterling, VA

Home | Current Version | Previous Version | Graphics & Text | Print | Product List | Glossary On
Versions: 1 2 3 4 5 6 7 8 9 10 11 12 13 14 15 16 17 18 19 20 21 22 23 24 25 26 27
000
ASUS41 KLWX 051310
RWRLWX

REGIONAL WEATHER ROUNDUP
NATIONAL WEATHER SERVICE BALTIMORE MD/WASHINGTON DC
900 AM EDT THU MAY 05 2016

Note: "FAIR" indicates few or no clouds below 12,000 feet
with no significant weather and/or obstructions to visibility.
 TC=TEMPERATURE CELSIUS

 * =Non NWS site. Station does not report precipitation (e.g. rain,
    snow, etc.), thunder, or fog.

DCZ001-MDZ009-015-VAZ040>042-051-053>054-051400-
WASHINGTON METRO

CITY           SKY/WX    TMP DP  RH WIND       PRES   REMARKS
WASHINGTON NAT DRIZZLE   51  49  92 NE10      29.68R FOG
DULLES         CLOUDY    51  48  89 NE10      29.68R FOG
ANDREWS AFB    CLOUDY    50  48  93 NE9       29.66S FOG
FT BELVOIR     DRIZZLE   52  48  87 VRB1      29.67S FOG
QUANTICO       CLOUDY    54  49  83 NE14G20   29.67S
COLLEGE PARK*  CLOUDY    50  46  87 CALM      29.67S
LEESBURG*      CLOUDY    52  52 100 NE5       29.69R
MANASSAS*      CLOUDY    52  52 100 NE8       29.67S
GAITHERSBURG*  CLOUDY    48  46  93 CALM      29.71S

$$

MDZ006>007-011-014-051400-
BALTIMORE METRO

CITY           SKY/WX    TMP DP  RH WIND       PRES   REMARKS
BWI AIRPORT    DRIZZLE   50  48  93 NE9       29.68R FOG
MD SCIENCE CTR   N/A     51  47  86 MISG      29.68S
MARTIN STATE   CLOUDY    52  50  93 N8        29.71R
ANNAPOLIS      CLOUDY    51  48  89 NE6       29.68R
FORT MEADE*    CLOUDY    50  46  87 CALM      29.70R

$$

MDZ012-015-019>023-051400-
MARYLAND EASTERN SHORE

CITY           SKY/WX    TMP DP  RH WIND       PRES   REMARKS
OCEAN CITY     CLOUDY    49  46  90 NE10G21   29.65S
SALISBURY      CLOUDY    49  47  93 NE7       29.66R FOG
CAMBRIDGE*     CLOUDY    50  45  81 E8        29.66R
EASTON*        CLOUDY   N/A N/A N/A NE10      29.71R

$$

MDZ017>025-051400-
SOUTHERN MARYLAND

CITY           SKY/WX    TMP DP  RH WIND       PRES   REMARKS
PATUXENT RIVER CLOUDY    51  46  83 NE14      29.66R
ST INIGOES     CLOUDY    52  48  86 VRB6      29.65R
LEONARDTOWN*   CLOUDY    50  46  87 NE5       29.68R

$$

MDZ003>005-051400-
NORTH CENTRAL MARYLAND

CITY           SKY/WX    TMP DP  RH WIND       PRES   REMARKS
FREDERICK*     CLOUDY    52  52 100 NE5       29.72R FOG
HAGERSTOWN APT CLOUDY    53  46  77 E8        29.69R
WESTMINSTER*   DRIZZLE   48  27  43 NE6       29.68S

$$

MDZ501>502-051400-
WESTERN MARYLAND

CITY           SKY/WX    TMP DP  RH WIND       PRES   REMARKS
OAKLAND*       FOG       43  43 100 N3        29.67S VSB<1/4
CUMBERLAND*    CLOUDY    52  52 100 CALM      29.73R

$$

VAZ025>031-051400-
SHENANDOAH VALLEY

CITY           SKY/WX    TMP DP  RH WIND       PRES   REMARKS
WINCHESTER*    CLOUDY    50  48  93 NE3       29.67S FOG
FRONT ROYAL*   CLOUDY    48  48 100 NE5       29.66S
LURAY*         LGT RAIN  48  48 100 N9        29.66R
NEW MARKET*    CLOUDY    49  48  97 NE8       29.65R
STAUNTON*      DRIZZLE   53  53 100 NE7       29.65R
WAYNESBORO*    CLOUDY    50  49  96 CALM      29.63R

$$

WVZ021-048>050-054>055-051400-
EASTERN WEST VIRGINIA PANHANDLE

CITY           SKY/WX    TMP DP  RH WIND       PRES   REMARKS
MARTINSBURG    CLOUDY    51  47  86 N8        29.68R
PETERSBURG*    DRIZZLE   54  50  87 CALM      29.67S

$$

VAZ036>039-050-051400-
CENTRAL FOOTHILLS

CITY           SKY/WX    TMP DP  RH WIND       PRES   REMARKS
CHARLOTTESVILL LGT RAIN  51  48  89 NE12      29.64R FOG
CULPEPER*      CLOUDY    51  50  95 CALM      29.68R FOG
ORANGE*        RAIN      50  50 100 CALM      29.67S
GORDONSVILLE*  CLOUDY    50  49  97 NE7       29.65R
WARRENTON*     CLOUDY    52  46  80 NE7       29.67R

$$

VAZ055>057-051400-
NORTH AND CENTRAL PIEDMONT

CITY           SKY/WX    TMP DP  RH WIND       PRES   REMARKS
FREDERICKSBRG*   N/A    N/A N/A N/A NE5       29.66R
STAFFORD*      CLOUDY    51  48  90 NE7       29.70S

$$

NCZ024-NYZ072-PAZ021-071-VAZ022-071-051400-
OTHER REGIONAL OBSERVATIONS

CITY           SKY/WX    TMP DP  RH WIND       PRES   REMARKS
NEW YORK CITY  CLOUDY    48  42  80 VRB6      29.73S
PHILADELPHIA   CLOUDY    50  43  77 NE15G21   29.71R
PITTSBURGH     CLOUDY    51  47  86 N6        29.70S
ROANOKE        RAIN      50  48  93 W5        29.66R FOG
RICHMOND       CLOUDY    51  49  92 NE13      29.63R
RALEIGH        PTSUNNY   59  56  89 NW6       29.57R

$$

ANZ530>537-051400-
MARINE OBSERVATIONS

STATION/POSITION TIME  TEMP    WIND        PRES
                       AIR SEA DIR/SP/G
                 (UTC) (F)     (DEG/KT/KT) (MB)
THOMAS PT LIGHT  1300   51 58   60/ 13/ 15 1006.0R
BALT KEY BRIDGE  1200   51      20/ 10/ 12 1004.5S
COVE POINT       1200   49      80/ 12/ 14 1004.5R
LEWISETTA        1200   52 61   60/  9/ 13 1003.5R
SOLOMONS ISLAND  1200   51 60   40/  7/ 11   N/A
PINEY POINT      1200           70/  4/  6   N/A

$$





USA.gov is the U.S. government's official web portal to all federal, state and local government web resources and services.